Weather History for Sierra Vista, AZ

Change the Weather History Date:

Thursday, August 29, 2013

  Actual Average Record
Temperature  
Mean Temperature 70 °F -  
Max Temperature 73 °F 87 °F 96 °F (2011)
Min Temperature 66 °F 68 °F 60 °F (1989)
Cooling Degree Days 4    
Growing Degree Days 20 (Base 50)    
Moisture  
Dew Point 64 °F    
Average Humidity 83    
Maximum Humidity 97    
Minimum Humidity 69    
Precipitation  
Precipitation 0.01 in - - ()
Sea Level Pressure  
Sea Level Pressure 30.13 in    
Wind  
Wind Speed 4 mph (North)    
Max Wind Speed 13 mph    
Max Gust Speed -    
Visibility 10 miles    
Events Rain , Thunderstorm    
Averages and records for this station are not official NWS values.
T = Trace of Precipitation, MM = Missing Value Source: NWS Daily Summary

Daily Weather History Graph

Daily Weather History Graph

Search for Another Location

Airport:

Trip Planner

Search our weather history database for the weather conditions in past years. The results will help you decide how hot, cold, wet, or windy it might be!

Date:

Astronomy

Aug. 29, 2013 Rise Set
Actual Time 5:55 AM MST 6:48 PM MST
Civil Twilight 5:30 AM MST 7:13 PM MST
Nautical Twilight 5:01 AM MST 7:42 PM MST
Astronomical Twilight 4:30 AM MST 8:12 PM MST
Moon 12:00 AM MST (8/29) 2:08 PM MST (8/29)
Length of Visible Light 13h 42m
Length of Day
12h 52m
Last Quarter, 37% of the Moon is Illuminated
Aug 29
Last Quarter
Sep 5
New
Sep 12
First Quarter
Sep 19
Full
Sep 26
Last Quarter

Hourly Weather History & Observations

Time (MST) Temp. Dew Point Humidity Pressure Visibility Wind Dir Wind Speed Gust Speed Precip Events Conditions
12:55 AM 71.6 °F 60.8 °F 69% 29.99 in 10.0 mi ESE 5.8 mph - N/A   Mostly Cloudy
1:55 AM 69.8 °F 60.8 °F 73% 30.01 in 10.0 mi Calm Calm - N/A   Mostly Cloudy
2:55 AM 69.8 °F 62.6 °F 78% 29.99 in 10.0 mi SSE 3.5 mph - N/A   Mostly Cloudy
3:55 AM 69.8 °F 62.6 °F 78% 30.00 in 10.0 mi Calm Calm - N/A   Mostly Cloudy
4:47 AM 68.0 °F 62.6 °F 83% 30.20 in 10.0 mi NNW 6.9 mph - N/A Rain Light Rain Showers
4:55 AM 68.0 °F 62.6 °F 83% 30.03 in 10.0 mi NNW 5.8 mph - N/A Rain Light Rain Showers
4:56 AM 69.8 °F 62.6 °F 78% 30.21 in 10.0 mi North 5.8 mph - N/A   Overcast
5:45 AM 68.0 °F 62.6 °F 83% 30.22 in 8.0 mi Calm Calm - N/A Rain Light Rain Showers
5:55 AM 68.0 °F 64.4 °F 88% 30.04 in 7.0 mi North 4.6 mph - N/A Rain Light Rain
6:29 AM 66.2 °F 64.4 °F 94% 30.23 in 10.0 mi NNE 5.8 mph - N/A   Overcast
6:55 AM 68.0 °F 64.4 °F 88% 30.08 in 10.0 mi Calm Calm - N/A   Overcast
7:55 AM 69.8 °F 64.4 °F 83% 30.09 in 10.0 mi Calm Calm - N/A   Overcast
8:55 AM 71.6 °F 62.6 °F 73% 30.09 in 10.0 mi North 4.6 mph - N/A   Mostly Cloudy
9:55 AM 73.4 °F 62.6 °F 69% 30.10 in 10.0 mi NNE 4.6 mph - N/A   Overcast
10:55 AM 69.8 °F 66.2 °F 88% 30.11 in 10.0 mi ENE 5.8 mph - N/A   Overcast
11:39 AM 69.8 °F 64.4 °F 83% 30.26 in 4.0 mi Calm Calm - N/A Rain Light Rain Showers
11:55 AM 69.8 °F 66.2 °F 88% 30.10 in 3.0 mi WNW 4.6 mph - N/A Rain Light Rain Showers
12:23 PM 71.6 °F 64.4 °F 78% 30.25 in 10.0 mi WNW 6.9 mph - N/A   Overcast
12:29 PM 71.6 °F 66.2 °F 83% 30.25 in 10.0 mi West 8.1 mph - N/A Rain Light Rain
12:55 PM 69.8 °F 66.2 °F 88% 30.09 in 8.0 mi WSW 12.7 mph - N/A Rain Light Rain
1:48 PM 69.8 °F 64.4 °F 83% 30.22 in 10.0 mi West 11.5 mph - N/A Rain , Thunderstorm Light Rain
1:55 PM 69.8 °F 66.2 °F 88% 30.07 in 10.0 mi WNW 8.1 mph - N/A Rain , Thunderstorm Light Rain
2:07 PM 71.6 °F 66.2 °F 83% 30.23 in 10.0 mi WNW 9.2 mph - N/A Thunderstorm Mostly Cloudy
2:25 PM 71.6 °F 66.2 °F 83% 30.23 in 10.0 mi WNW 8.1 mph - N/A   Mostly Cloudy
2:55 PM 71.6 °F 66.2 °F 83% 30.06 in 10.0 mi NW 4.6 mph - N/A   Mostly Cloudy
3:55 PM 73.4 °F 64.4 °F 73% 30.07 in 10.0 mi ENE 6.9 mph - N/A   Overcast
4:56 PM 72.0 °F 64.0 °F 76% 30.08 in 10.0 mi ENE 10.4 mph - 0.00 in   Clear
5:03 PM 71.6 °F 64.4 °F 78% 30.24 in 10.0 mi East 9.2 mph - N/A Thunderstorm Partly Cloudy
5:40 PM 69.8 °F 64.4 °F 83% 30.25 in 10.0 mi East 3.5 mph - N/A   Overcast
5:56 PM 70.0 °F 64.9 °F 84% 30.10 in 10.0 mi Calm Calm - 0.00 in Rain Light Rain
6:56 PM 69.1 °F 64.0 °F 84% 30.10 in 10.0 mi Calm Calm - 0.01 in Rain Light Rain
7:56 PM 68.0 °F 64.9 °F 90% 30.11 in 10.0 mi ENE 3.5 mph - 0.00 in Rain Light Rain
8:56 PM 68.0 °F 64.0 °F 87% 30.11 in 10.0 mi ESE 4.6 mph - 0.00 in   Clear
9:56 PM 66.9 °F 66.0 °F 97% 30.11 in 10.0 mi East 4.6 mph - 0.00 in Rain Light Rain
10:44 PM 66.2 °F 64.4 °F 94% 30.27 in 10.0 mi Calm Calm - N/A   Mostly Cloudy
10:55 PM 66.2 °F 64.4 °F 94% 30.12 in 10.0 mi Calm Calm - N/A   Mostly Cloudy
11:55 PM 68.0 °F 64.4 °F 88% 30.12 in 10.0 mi Calm Calm - N/A   Overcast